Gael Paz

Olheiro - Central Norte
6 Dez 2028
Quarta-feira
Processo

Personalidade

Adaptabilidade (17) Ambição (2) Controvérsia (17) Lealdade (4) Pressão (9) Profissionalismo (16) Espírito Esportivo (8) Temperamento (2)

Perfil

Estilo de Treinamento Democrático
Licença Continental Pro
Determinação 2
Gestão de Pessoas 7
Motivação 2
Disciplina 2
Satisfação no Trabalho
96%
Fadiga
0%
Função Olheiro
Salário 12.5K p/s
Contrato 14.03.2030

Desempenho

Comportamento Bom
Eficácia do Treinamento
18%
Desenvolvimento do Jogador
15%
Prevenção de Lesões
30%
Implementação Tática
20%

Monitorando agora

88
Jogador Clube Status Habilidade Confiança Observado Última observação Último voto
Francisco Mongelos Sportivo Luqueno Ativo 95 / 91 40% 2 26.11.2026 -
Emiliano González Almagro Ativo 125 / 128 40% 1 25.11.2026 -
Yacouba Meïté Plaza Colonia Ativo 92 / 88 40% 2 24.11.2026 -
Alexis Piegas Cerro Largo Ativo 100 / 85 40% 1 24.11.2026 -
Moisés Gallo Aragua Ativo 102 / 100 40% 2 20.11.2026 -
Ángel Maciel Tacuarembo Ativo 111 / 99 40% 3 19.11.2026 -
Germán Peralta La Luz Ativo 98 / 103 40% 2 19.11.2026 -
Santiago Godoy 12 de Octubre Ativo 78 / 95 40% 2 17.11.2026 -
Luciano Jachfe Nueva Chicago Ativo 117 / 106 40% 2 17.11.2026 -
Agustín Pereira Albion Ativo 106 / 121 40% 2 13.11.2026 -
Nahuel Manganelli San Martín Ativo 125 / 109 40% 1 13.11.2026 -
Vicente Concha Iquique Ativo 89 / 84 40% 2 10.11.2026 -
Nicolás Mosca Atlanta Ativo 104 / 106 40% 1 10.11.2026 -
Igor Leonardi Montevideo City Torque Ativo 72 / 81 40% 2 08.11.2026 -
Santiago Costa Albion Ativo 106 / 110 40% 1 07.11.2026 -
Adriel da Silva Oriental Ativo 60 / 72 40% 1 06.11.2026 -
Emiliano Bermúdez Oriental Ativo 93 / 91 40% 1 06.11.2026 -
David Agudelo Depor Ativo 99 / 90 40% 1 05.11.2026 -
Alex Payares Barranquilla Ativo 78 / 88 40% 1 04.11.2026 -
Mathías Bordón Sol de America Ativo 74 / 70 40% 1 03.11.2026 -
Massimo Sandi Sport Huancayo Ativo 82 / 103 40% 3 01.11.2026 -
Javier Bravo Mineros de Guayana Ativo 75 / 66 40% 1 01.11.2026 -
Gonzalo Revillod Union Espanola Ativo 78 / 64 40% 2 30.10.2026 -
Nicolás Rossi Juventud Ativo 112 / 100 40% 2 30.10.2026 -
Miguel Silva Carabobo Ativo 115 / 107 40% 3 29.10.2026 -
Lautaro Bursich Talleres Ativo 93 / 107 40% 1 25.10.2026 -
Gustavo Dionisi Guarani Ativo 93 / 80 40% 1 24.10.2026 -
Ignacio Ponce San Luis Ativo 69 / 87 40% 1 24.10.2026 -
Juan Bosca Racing Ativo 96 / 102 40% 2 23.10.2026 -
Cristóbal Guerra San Marcos de Arica Ativo 88 / 91 40% 1 23.10.2026 -
Aldo Pérez Guarani Ativo 114 / 119 40% 2 20.10.2026 -
Diego Vicente La Luz Ativo 89 / 93 40% 1 18.10.2026 -
Augusto Gallo Fenix Ativo 108 / 109 40% 1 18.10.2026 -
Rafael Sánchez Estudiantes de Caracas Ativo 89 / 102 40% 2 13.10.2026 -
Laureano Martínez Talleres Ativo 100 / 104 40% 2 13.10.2026 -
Nicolás Muñoz San Luis Ativo 83 / 97 40% 1 12.10.2026 -
Franco Provenzano Deportivo Tachira Ativo 81 / 82 40% 1 12.10.2026 -
Tomás Moschion Albion Ativo 112 / 120 40% 1 09.10.2026 -
Fernando Miranda Colegiales Ativo 117 / 94 40% 1 09.10.2026 -
Santiago Roggero Gimnasia y Esgrima Ativo 99 / 116 40% 1 09.10.2026 -
Elías Villar Nacional Ativo 84 / 102 40% 1 09.10.2026 -
Facundo López Morón Ativo 111 / 102 40% 1 07.10.2026 -
Facundo Perdomo Liverpool Montevideo Ativo 101 / 91 40% 1 07.10.2026 -
Edgar Martínez Cruz Azul Ativo 83 / 76 40% 1 05.10.2026 -
Agustín Olavarría Colon Ativo 95 / 100 40% 2 03.10.2026 -
Yeferson Cordova Llaneros Ativo 102 / 88 40% 3 29.09.2026 -
Fabrizio Correa Juventud Ativo 116 / 121 40% 1 29.09.2026 -
Gabriel Chocobar Oriental Ativo 97 / 106 40% 1 28.09.2026 -
Julián Pou Montevideo City Torque Ativo 95 / 114 40% 1 27.09.2026 -
Mauro Casoli Talleres Ativo 110 / 108 40% 2 25.09.2026 -
Ricardo Bettocchi UTC Ativo 79 / 94 40% 1 25.09.2026 -
Ronald Álvarez Colon Ativo 109 / 86 40% 1 25.09.2026 -
Nicolás Kozlovsky Oriental Ativo 105 / 118 40% 1 25.09.2026 -
Enzo Vlaeminch Oriental Ativo 85 / 96 40% 1 24.09.2026 -
Ignacio Bessone Charlotte Football Club Ativo 104 / 116 40% 1 22.09.2026 -
Hermes Rodríguez Zulia Ativo 89 / 82 40% 2 17.09.2026 -
Eduardo Fereira Caracas Ativo 116 / 99 40% 1 17.09.2026 -
Duván Mósquera Aguilas Doradas Ativo 97 / 108 40% 1 16.09.2026 -
Gustavo Falcao Cortulua Ativo 98 / 72 40% 1 15.09.2026 -
Federico Dafonte Boston River Ativo 89 / 84 40% 1 15.09.2026 -
Antonio Martínez Cerro Porteno Ativo 92 / 93 40% 1 12.09.2026 -
Joaquín Bigo Tristán Suárez Ativo 106 / 97 40% 1 10.09.2026 -
Kevin González Trujillanos Ativo 101 / 89 40% 1 06.09.2026 -
Maximiliano Luayza Koot Tristán Suárez Ativo 107 / 125 40% 1 06.09.2026 -
Alejandro Aguilar Bogota Ativo 101 / 103 40% 1 06.09.2026 -
Reynaldo Fontalvo Real Cartagena Ativo 100 / 107 40% 1 06.09.2026 -
Agustín Requena Progreso Ativo 112 / 111 40% 1 04.09.2026 -
Aldhy Valencia Cesar Vallejo Ativo 70 / 77 40% 1 03.09.2026 -
Omar Mireles Veracruz Ativo 105 / 84 40% 1 31.08.2026 -
Denis Acosta Sportivo Trinidense Ativo 105 / 81 40% 1 31.08.2026 -
Giuliano Burgos Sportivo Luqueno Ativo 92 / 92 40% 1 29.08.2026 -
Andrés Álvarez Aguilas Doradas Ativo 100 / 99 40% 1 29.08.2026 -
Maicol Borba Atenas Ativo 85 / 106 40% 1 28.08.2026 -
Jesús Cano Tigres Ativo 101 / 83 40% 1 28.08.2026 -
Guido Sosa Atenas Ativo 92 / 108 40% 1 27.08.2026 -
Nico Hansen Colorado Rapids Ativo 114 / 89 40% 1 25.08.2026 -
Lusiel Gómez La Luz Ativo 79 / 83 40% 1 24.08.2026 -
Sebastián Guerra Barranquilla Ativo 82 / 98 40% 1 21.08.2026 -
Agustín da Silveira Sportivo Trinidense Ativo 106 / 116 40% 1 19.08.2026 -
Dilan Tapia Real Santander Ativo 82 / 75 40% 1 14.08.2026 -
Rodolfo Argüello Nacional Ativo 81 / 93 40% 1 14.08.2026 -
José Ferrer Estudiantes de Caracas Ativo 89 / 84 40% 1 10.08.2026 -
Fabián Píriz Fenix Ativo 91 / 107 40% 1 09.08.2026 -
Diego Duarte River Plate Ativo 69 / 82 40% 1 08.08.2026 -
Gaizka Gómez Wanderers Ativo 87 / 88 40% 1 08.08.2026 -
Marcelo Jiménez Sportivo Luqueno Ativo 98 / 101 40% 1 05.08.2026 -
Carlos Acuña Nacional Ativo 94 / 84 40% 1 03.08.2026 -
Mauro Rodas Sportivo Trinidense Ativo 79 / 101 40% 1 02.08.2026 -